FW1418 Weather Reports


Display with metric or nautical units.
time (UTC)temp
F
wind
direction
speed
MPH
gust
MPH
rain 1hr
in
rain 24hr
in
rain mn
in
humidity
%
barometer
mb
20260906183053 74 124 4.0 9.0 0.00 0.00 0.00 71 1021.1
20260906181548 73 122 5.0 10.0 0.00 0.00 0.00 73 1021.0
20260906180042 73 121 5.0 10.0 0.00 0.00 0.00 78 1021.2
20260906174546 72 106 6.0 10.0 0.00 0.00 0.00 79 1021.3
20260906173039 72 139 4.0 10.0 0.00 0.00 0.00 79 1021.4
20260906171541 72 126 6.0 11.0 0.00 0.00 0.00 80 1021.6
20260906170038 72 152 7.0 11.0 0.00 0.00 0.00 78 1021.7
20260906164537 72 119 3.0 10.0 0.00 0.00 0.00 78 1021.7
20260906163046 73 133 2.0 9.0 0.00 0.00 0.00 75 1021.8
20260906161542 72 128 4.0 9.0 0.00 0.00 0.00 76 1021.9
20260906160033 72 123 5.0 9.0 0.00 0.00 0.00 73 1021.9
20260906154531 72 142 2.0 7.0 0.00 0.00 0.00 78 1022.0
20260906153029 72 123 3.0 6.0 0.00 0.00 0.00 79 1021.9
20260906151529 71 117 2.0 6.0 0.00 0.00 0.00 77 1021.9
20260906150029 72 123 2.0 4.0 0.00 0.00 0.00 76 1021.8
20260906144527 72 121 1.0 4.0 0.00 0.00 0.00 78 1021.8
20260906143024 70 100 1.0 3.0 0.00 0.00 0.00 81 1021.6
20260906141522 69 98 1.0 4.0 0.00 0.00 0.00 83 1021.6
20260906140021 70 82 1.0 4.0 0.00 0.00 0.00 82 1021.6
20260906134518 70 35 0.0 2.0 0.00 0.00 0.00 83 1021.5
20260906133014 69 344 0.0 2.0 0.00 0.00 0.00 84 1021.6
20260906131510 67 344 0.0 3.0 0.00 0.00 0.00 87 1021.6
20260906130012 65 9 0.0 2.0 0.00 0.00 0.00 89 1021.5
20260906124502 63 9 0.0 2.0 0.00 0.00 0.00 94 1021.4
20260906123100 60 9 0.0 1.0 0.00 0.00 0.00 96 1021.2
20260906121604 58 9 0.0 1.0 0.00 0.00 0.00 97 1021.0
20260906120104 57 9 0.0 0.0 0.00 0.00 0.00 98 1021.0
20260906114611 56 9 0.0 2.0 0.00 0.00 0.00 98 1020.8
20260906113056 55 9 0.0 2.0 0.00 0.00 0.00 97 1020.8
20260906111619 55 9 0.0 2.0 0.00 0.00 0.00 97 1020.7
20260906110053 55 9 0.0 3.0 0.00 0.00 0.00 97 1020.8
20260906104554 55 9 0.0 1.0 0.00 0.00 0.00 97 1020.9
20260906103050 56 9 0.0 1.0 0.00 0.00 0.00 97 1020.8
20260906101548 56 9 1.0 5.0 0.00 0.00 0.00 97 1020.8
20260906100046 56 97 1.0 4.0 0.00 0.00 0.00 97 1020.7
20260906094545 56 113 1.0 3.0 0.00 0.00 0.00 97 1020.5
20260906093051 56 113 0.0 3.0 0.00 0.00 0.00 97 1020.4
20260906091542 56 113 2.0 3.0 0.00 0.00 0.00 97 1020.3
20260906090041 56 119 1.0 3.0 0.00 0.00 0.00 97 1020.3
20260906084539 56 125 2.0 3.0 0.00 0.00 0.00 97 1020.0
20260906083037 57 125 1.0 3.0 0.00 0.00 0.00 97 1019.9
20260906081548 57 125 1.0 2.0 0.00 0.00 0.00 97 1019.6
20260906080032 57 125 1.0 4.0 0.00 0.00 0.00 97 1019.5
20260906074531 57 125 2.0 3.0 0.00 0.00 0.00 97 1019.4
20260906073046 57 125 2.0 3.0 0.00 0.00 0.00 97 1019.3
20260906071530 57 125 1.0 3.0 0.00 0.00 0.00 96 1019.2
20260906070037 57 125 2.0 3.0 0.00 0.00 0.00 96 1019.2
20260906064526 58 125 2.0 3.0 0.00 0.00 0.00 96 1019.3
20260906063025 58 125 1.0 3.0 0.00 0.00 0.00 95 1019.4
20260906061523 58 125 2.0 3.0 0.00 0.00 0.00 95 1019.4
20260906060020 59 127 1.0 3.0 0.00 0.00 0.00 95 1019.2
20260906054522 59 127 1.0 3.0 0.00 0.00 0.00 95 1019.1
20260906053018 59 127 1.0 3.0 0.00 0.00 0.00 95 1019.2
20260906051521 59 132 1.0 3.0 0.00 0.00 0.00 95 1019.1
20260906050013 60 132 2.0 3.0 0.00 0.00 0.00 94 1019.1
20260906044512 60 132 0.0 2.0 0.00 0.00 0.00 93 1018.9
20260906043008 61 132 1.0 2.0 0.00 0.00 0.00 92 1018.8
20260906041506 62 132 1.0 2.0 0.00 0.00 0.00 91 1018.7
20260906040003 62 132 2.0 3.0 0.00 0.00 0.00 90 1018.8
20260906034600 63 132 1.0 2.0 0.00 0.00 0.00 89 1018.9
20260906034529 63 132 1.0 2.0 0.00 0.00 0.00 89 1018.8
20260906033058 64 135 1.0 3.0 0.00 0.00 0.00 87 1018.8
20260906031603 65 135 0.0 2.0 0.00 0.00 0.00 86 1018.7
20260906030055 67 135 0.0 2.0 0.00 0.00 0.00 83 1018.7
20260906024550 68 135 1.0 3.0 0.00 0.00 0.00 79 1018.6
20260906023104 68 127 2.0 9.0 0.00 0.00 0.00 80 1018.3
20260906021547 68 90 1.0 4.0 0.00 0.00 0.00 84 1018.1
20260906020046 68 57 0.0 4.0 0.00 0.00 0.00 82 1017.9
20260906014556 68 52 1.0 4.0 0.00 0.00 0.00 81 1017.9
20260906013045 68 46 2.0 4.0 0.00 0.00 0.00 81 1017.8
20260906011553 68 68 2.0 4.0 0.00 0.00 0.00 81 1017.6
20260906010044 69 66 2.0 6.0 0.00 0.00 0.00 79 1017.5
20260906004544 69 50 2.0 9.0 0.00 0.00 0.00 77 1017.6
20260906003045 70 51 3.0 9.0 0.00 0.00 0.00 76 1017.5
20260906001543 70 74 3.0 8.0 0.00 0.00 0.00 76 1017.5
20260906000042 70 59 3.0 5.0 0.00 0.00 0.00 76 1017.4
20260905234552 71 38 3.0 6.0 0.00 0.00 0.00 74 1017.6
20260905233041 72 55 3.0 6.0 0.00 0.00 0.00 72 1017.6
20260905231541 72 69 3.0 10.0 0.00 0.00 0.00 70 1017.4
20260905230043 73 56 2.0 8.0 0.00 0.00 0.00 69 1017.2
20260905224544 74 67 4.0 9.0 0.00 0.00 0.00 69 1017.1
20260905223039 74 80 4.0 9.0 0.00 0.00 0.00 68 1017.0
20260905221542 75 24 4.0 11.0 0.00 0.00 0.00 68 1017.0
20260905220037 75 11 4.0 10.0 0.00 0.00 0.00 67 1016.9
20260905214538 75 58 3.0 9.0 0.00 0.00 0.00 69 1016.9
20260905213037 75 68 3.0 11.0 0.00 0.00 0.00 70 1016.9
20260905211536 76 96 3.0 10.0 0.00 0.00 0.00 71 1016.8
20260905210037 77 98 1.0 8.0 0.00 0.00 0.00 70 1016.9
20260905204534 76 52 5.0 11.0 0.00 0.00 0.00 67 1016.9
20260905203033 76 38 4.0 10.0 0.00 0.00 0.00 67 1017.1
20260905201535 76 103 4.0 12.0 0.00 0.00 0.00 70 1017.0
20260905200044 76 119 6.0 11.0 0.00 0.00 0.00 70 1016.9
20260905194529 76 112 5.0 9.0 0.00 0.00 0.00 70 1017.1
20260905193029 75 93 6.0 11.0 0.00 0.00 0.00 72 1017.2
20260905191535 75 114 5.0 11.0 0.00 0.00 0.00 76 1017.4
20260905190043 76 106 4.0 10.0 0.00 0.00 0.00 77 1017.6
20260905184529 76 121 3.0 8.0 0.00 0.00 0.00 76 1017.5